SCP
0 0 0 0 0 0 -0 -0 0 0 -0 -0 0 0 0 0 0 0 0 0 0 0 0 -0 -0 -0 -0 0 0 0 0 0
0 0 0 -0 0 0 0 -0 -0 -0 -0 -0 0 0 0 0 0 0 0 0 0 0 0 0 -0 0 -0 0 0 0 0 0
0 0 0 0 -0 0 0 -0 0 0 0 0 0 0 0 0 0 0 0 0 0 0 0 0 -0 -0 0 0 0 0 0 0
0 0 0 0 -0 -0 0 0 0 0 0 0 0 0 0 0 0 0 0 0 0 0 0 0 0 0 0 -0 0 0 0 0
0 0 0 0 -0 -0 -0 0 0 0 0 0 0 0 0 0 0 0 0 0 0 0 0 0 0 0 0 0 0 0 0 0
0 0 0 0 0 -0 -0 0 0 0 1 0 0 0 0 0 0 0 0 0 0 0 0 0 0 0 0 0 -0 0 0 0
0 0 0 0 0 -0 -0 0 0 1 1 1 1 0 0 0 0 0 0 0 0 0 0 0 0 0 0 0 0 0 0 0
0 0 0 0 1 0 0 0 1 1 1 1 0 0 0 0 0 0 0 0 0 0 0 0 -0 0 0 0 0 0 0 0
0 0 0 1 1 1 1 1 2 1 1 0 0 0 0 0 0 0 0 0 0 0 0 0 0 0 0 0 0 0 0 0
0 1 0 0 1 1 1 2 2 1 1 0 0 0 0 0 0 0 0 0 0 0 0 0 0 0 0 0 0 0 0 0
0 0 1 1 1 1 1 2 1 1 1 1 0 0 0 0 0 0 0 0 0 0 0 0 0 0 0 0 0 0 0 0
1 1 1 1 2 2 2 1 1 1 1 0 0 0 0 0 0 0 0 0 -0 0 0 0 0 0 0 0 0 0 0 0
0 0 0 0 0 1 1 0 0 1 0 0 0 0 0 0 0 0 0 -0 -0 0 0 0 0 0 0 0 0 0 0 0
0 0 0 0 0 0 0 0 0 1 0 0 0 0 0 0 0 0 -0 -0 0 0 0 0 0 0 0 0 0 0 0 0
0 0 0 0 0 0 0 0 0 0 0 0 0 0 0 0 0 0 0 0 0 0 0 0 0 0 0 0 0 0 0 0
0 0 0 0 0 0 0 0 0 0 0 0 0 0 0 0 0 0 0 0 0 0 0 0 0 0 0 0 0 0 0 0
0 0 0 0 0 0 0 0 0 0 0 1 0 0 0 0 0 0 0 0 0 0 0 0 0 0 0 0 0 0 0 0
0 0 0 0 0 0 0 0 1 0 0 0 0 0 0 0 0 0 0 0 0 0 0 0 0 0 0 0 0 0 0 0
0 0 0 0 0 0 0 0 0 0 0 0 1 0 0 0 0 0 0 0 0 0 0 0 0 0 0 0 0 0 0 0
0 0 0 0 0 0 0 0 0 1 0 0 0 0 0 0 0 0 0 0 0 0 0 0 0 0 0 0 0 0 0 0
Wind_Speed_500mb
30 29 29 32 31 29 25 28 26 24 18 13 10 6 6 4 2 6 7 3 7 10 21 25 24 26 15 19 15 15 18 15
30 30 29 30 33 31 27 27 28 24 17 15 11 8 5 3 4 4 8 8 8 1 3 6 7 5 3 6 8 15 17 19
30 31 31 34 37 36 34 28 27 24 19 14 12 7 5 3 4 4 1 1 7 4 5 2 2 3 4 4 3 7 12 15
30 33 32 34 35 38 34 30 29 26 21 17 13 11 5 4 1 8 4 2 7 6 7 5 5 3 2 1 2 3 6 9
30 33 34 35 36 37 39 39 32 28 23 16 11 5 6 12 13 14 9 2 9 5 8 5 6 9 7 4 3 3 3 3
29 35 35 36 37 42 41 38 39 37 33 24 17 22 25 26 21 24 10 10 7 4 9 9 12 5 5 6 3 5 3 3
30 35 37 39 39 44 47 45 45 41 45 35 25 23 38 32 23 15 18 12 8 3 6 12 10 8 7 8 8 8 10 7
28 32 37 38 36 37 38 38 42 46 35 24 20 33 35 32 19 7 15 9 12 6 11 9 2 9 9 8 12 9 12 11
25 30 36 39 39 38 40 41 58 48 39 31 35 36 38 44 32 18 7 10 16 13 5 11 3 9 11 18 6 7 7 10
20 24 31 36 38 36 37 46 51 47 44 34 33 33 37 48 41 30 25 8 17 12 11 11 13 11 13 11 13 10 9 12
18 17 23 30 35 33 35 41 42 38 33 39 30 37 35 36 45 41 30 16 16 18 16 12 15 13 14 11 9 12 9 13
15 12 12 16 24 31 34 37 26 26 33 35 32 31 33 28 35 35 29 35 22 23 18 12 9 11 19 8 12 12 14 10
23 16 9 13 18 23 31 22 19 23 24 25 23 22 18 20 29 25 24 38 35 25 20 16 13 11 19 22 18 15 7 10
22 19 15 10 8 9 10 12 18 24 28 25 19 18 23 21 34 30 32 33 32 31 24 19 15 15 13 8 12 10 10 18
18 14 14 15 13 7 8 10 20 27 28 33 24 20 24 26 30 29 34 39 38 35 28 22 16 14 15 13 11 10 8 7
13 13 10 11 8 6 12 13 15 25 31 30 27 26 24 27 30 29 33 29 29 32 27 24 19 16 14 13 9 8 9 10
10 9 6 5 4 6 12 20 19 15 23 30 26 25 20 24 28 39 37 36 28 35 26 26 23 20 20 13 12 16 18 11
6 6 5 3 1 3 8 11 13 14 20 20 21 27 23 31 37 39 42 39 31 36 29 28 26 24 21 15 15 14 12 11
6 5 3 2 2 4 6 6 9 11 12 15 23 27 22 27 29 34 45 45 44 42 31 31 32 28 25 20 13 17 16 15
11 8 5 2 2 4 4 7 9 18 16 13 18 23 21 21 19 21 35 45 44 40 37 36 36 32 29 28 24 26 30 21
Wind_Direction_500mb
167 168 170 169 168 170 171 170 168 172 178 156 177 191 194 214 179 77 228 12 351 16 334 0 354 14 15 22 35 51 67 64
172 172 170 172 173 175 170 175 172 167 183 162 190 192 167 82 227 18 340 25 349 318 258 317 16 295 39 37 17 66 72 68
177 176 174 176 178 180 175 176 170 174 166 175 168 198 145 199 37 290 248 316 286 343 297 294 280 310 340 52 55 88 63 71
177 177 177 178 180 182 177 173 175 176 170 175 177 160 193 156 140 297 351 72 305 314 334 313 306 295 241 119 206 82 76 62
182 185 182 179 180 180 178 172 177 178 172 177 162 182 197 240 266 273 281 298 312 160 291 306 272 260 217 200 173 146 124 73
185 189 189 181 177 178 177 176 183 182 177 174 175 219 254 273 271 300 269 284 290 360 305 281 263 254 236 220 214 230 222 209
189 190 189 187 182 180 183 182 181 176 200 213 227 250 253 256 253 273 278 280 274 242 287 285 282 250 228 230 228 223 251 232
194 191 192 191 188 189 184 183 185 210 220 214 246 261 257 254 239 189 307 277 273 266 275 275 262 251 233 217 212 242 231 252
193 194 195 195 193 191 190 182 204 216 213 220 234 254 264 256 244 219 218 241 275 281 255 309 300 243 215 236 231 268 246 254
182 193 200 201 200 202 200 205 221 224 222 229 234 264 269 254 241 230 222 235 258 271 242 242 236 248 231 211 208 215 260 257
169 187 204 209 206 211 204 216 217 226 226 232 243 269 278 258 241 230 182 230 277 262 275 215 252 179 261 219 222 221 245 260
99 149 169 208 197 199 209 219 221 237 228 227 265 271 275 267 235 224 220 235 263 264 271 253 220 216 226 232 225 195 233 267
81 103 129 163 185 222 237 225 224 221 231 238 286 268 256 278 215 248 233 224 241 251 251 238 236 173 233 200 223 197 238 246
83 94 101 120 157 175 172 195 216 234 233 244 275 258 251 245 237 229 221 230 232 234 236 238 232 221 243 222 213 224 197 217
93 97 110 138 154 163 175 204 220 247 266 252 264 286 255 248 231 225 216 218 226 226 227 226 232 201 230 210 210 209 242 249
105 109 117 153 154 190 207 233 231 236 259 280 262 274 260 237 240 227 229 215 213 226 221 221 207 226 225 238 233 201 242 261
114 122 121 100 168 219 256 270 273 242 239 257 282 263 259 247 235 235 224 203 211 225 223 221 213 209 228 250 186 224 218 241
136 144 156 154 200 260 260 236 240 258 273 270 247 262 257 246 254 247 235 209 197 227 221 214 218 225 233 234 242 256 221 232
188 199 212 223 275 286 280 276 273 262 239 233 247 257 270 266 264 245 234 224 209 221 221 221 227 233 230 238 204 229 228 229
237 218 208 228 319 349 314 280 283 284 302 257 262 271 272 270 269 255 235 224 221 226 228 223 235 223 227 233 239 212 231 231
Wind_Speed_850mb
30 29 29 32 31 29 25 28 26 24 18 13 10 6 6 4 2 6 7 3 7 10 21 25 24 26 15 19 15 15 18 15
30 30 29 30 33 31 27 27 28 24 17 15 11 8 5 3 4 4 8 8 8 1 3 6 7 5 3 6 8 15 17 19
30 31 31 34 37 36 34 28 27 24 19 14 12 7 5 3 4 4 1 1 7 4 5 2 2 3 4 4 3 7 12 15
30 33 32 34 35 38 34 30 29 26 21 17 13 11 5 4 1 8 4 2 7 6 7 5 5 3 2 1 2 3 6 9
30 33 34 35 36 37 39 39 32 28 23 16 11 5 6 12 13 14 9 2 9 5 8 5 6 9 7 4 3 3 3 3
29 35 35 36 37 42 41 38 39 37 33 24 17 22 25 26 21 24 10 10 7 4 9 9 12 5 5 6 3 5 3 3
30 35 37 39 39 44 47 45 45 41 45 35 25 23 38 32 23 15 18 12 8 3 6 12 10 8 7 8 8 8 10 7
28 32 37 38 36 37 38 38 42 46 35 24 20 33 35 32 19 7 15 9 12 6 11 9 2 9 9 8 12 9 12 11
25 30 36 39 39 38 40 41 58 48 39 31 35 36 38 44 32 18 7 10 16 13 5 11 3 9 11 18 6 7 7 10
20 24 31 36 38 36 37 46 51 47 44 34 33 33 37 48 41 30 25 8 17 12 11 11 13 11 13 11 13 10 9 12
18 17 23 30 35 33 35 41 42 38 33 39 30 37 35 36 45 41 30 16 16 18 16 12 15 13 14 11 9 12 9 13
15 12 12 16 24 31 34 37 26 26 33 35 32 31 33 28 35 35 29 35 22 23 18 12 9 11 19 8 12 12 14 10
23 16 9 13 18 23 31 22 19 23 24 25 23 22 18 20 29 25 24 38 35 25 20 16 13 11 19 22 18 15 7 10
22 19 15 10 8 9 10 12 18 24 28 25 19 18 23 21 34 30 32 33 32 31 24 19 15 15 13 8 12 10 10 18
18 14 14 15 13 7 8 10 20 27 28 33 24 20 24 26 30 29 34 39 38 35 28 22 16 14 15 13 11 10 8 7
13 13 10 11 8 6 12 13 15 25 31 30 27 26 24 27 30 29 33 29 29 32 27 24 19 16 14 13 9 8 9 10
10 9 6 5 4 6 12 20 19 15 23 30 26 25 20 24 28 39 37 36 28 35 26 26 23 20 20 13 12 16 18 11
6 6 5 3 1 3 8 11 13 14 20 20 21 27 23 31 37 39 42 39 31 36 29 28 26 24 21 15 15 14 12 11
6 5 3 2 2 4 6 6 9 11 12 15 23 27 22 27 29 34 45 45 44 42 31 31 32 28 25 20 13 17 16 15
11 8 5 2 2 4 4 7 9 18 16 13 18 23 21 21 19 21 35 45 44 40 37 36 36 32 29 28 24 26 30 21
Wind_Direction_850mb
167 168 170 169 168 170 171 170 168 172 178 156 177 191 194 214 179 77 228 12 351 16 334 0 354 14 15 22 35 51 67 64
172 172 170 172 173 175 170 175 172 167 183 162 190 192 167 82 227 18 340 25 349 318 258 317 16 295 39 37 17 66 72 68
177 176 174 176 178 180 175 176 170 174 166 175 168 198 145 199 37 290 248 316 286 343 297 294 280 310 340 52 55 88 63 71
177 177 177 178 180 182 177 173 175 176 170 175 177 160 193 156 140 297 351 72 305 314 334 313 306 295 241 119 206 82 76 62
182 185 182 179 180 180 178 172 177 178 172 177 162 182 197 240 266 273 281 298 312 160 291 306 272 260 217 200 173 146 124 73
185 189 189 181 177 178 177 176 183 182 177 174 175 219 254 273 271 300 269 284 290 360 305 281 263 254 236 220 214 230 222 209
189 190 189 187 182 180 183 182 181 176 200 213 227 250 253 256 253 273 278 280 274 242 287 285 282 250 228 230 228 223 251 232
194 191 192 191 188 189 184 183 185 210 220 214 246 261 257 254 239 189 307 277 273 266 275 275 262 251 233 217 212 242 231 252
193 194 195 195 193 191 190 182 204 216 213 220 234 254 264 256 244 219 218 241 275 281 255 309 300 243 215 236 231 268 246 254
182 193 200 201 200 202 200 205 221 224 222 229 234 264 269 254 241 230 222 235 258 271 242 242 236 248 231 211 208 215 260 257
169 187 204 209 206 211 204 216 217 226 226 232 243 269 278 258 241 230 182 230 277 262 275 215 252 179 261 219 222 221 245 260
99 149 169 208 197 199 209 219 221 237 228 227 265 271 275 267 235 224 220 235 263 264 271 253 220 216 226 232 225 195 233 267
81 103 129 163 185 222 237 225 224 221 231 238 286 268 256 278 215 248 233 224 241 251 251 238 236 173 233 200 223 197 238 246
83 94 101 120 157 175 172 195 216 234 233 244 275 258 251 245 237 229 221 230 232 234 236 238 232 221 243 222 213 224 197 217
93 97 110 138 154 163 175 204 220 247 266 252 264 286 255 248 231 225 216 218 226 226 227 226 232 201 230 210 210 209 242 249
105 109 117 153 154 190 207 233 231 236 259 280 262 274 260 237 240 227 229 215 213 226 221 221 207 226 225 238 233 201 242 261
114 122 121 100 168 219 256 270 273 242 239 257 282 263 259 247 235 235 224 203 211 225 223 221 213 209 228 250 186 224 218 241
136 144 156 154 200 260 260 236 240 258 273 270 247 262 257 246 254 247 235 209 197 227 221 214 218 225 233 234 242 256 221 232
188 199 212 223 275 286 280 276 273 262 239 233 247 257 270 266 264 245 234 224 209 221 221 221 227 233 230 238 204 229 228 229
237 218 208 228 319 349 314 280 283 284 302 257 262 271 272 270 269 255 235 224 221 226 228 223 235 223 227 233 239 212 231 231